Weather History for San Diego, CA

Change the Weather History Date:

Sunday, February 9, 2014

  Actual Average Record
Temperature  
Mean Temperature 62 °F 58 °F  
Max Temperature 66 °F 65 °F 77 °F (1907)
Min Temperature 58 °F 50 °F 38 °F (1929)
Degree Days  
Heating Degree Days 3 7  
Month to date heating degree days 57 69  
Since 1 July heating degree days 412 724  
Cooling Degree Days 0 0  
Month to date cooling degree days 0 0  
Year to date cooling degree days 7 2  
Growing Degree Days 12 (Base 50)    
Moisture  
Dew Point 51 °F    
Average Humidity 67    
Maximum Humidity 78    
Minimum Humidity 56    
Precipitation  
Precipitation 0.00 in 0.07 in 2.39 in (1901)
Month to date precipitation 0.35 0.65  
Year to date precipitation 0.36 2.63  
Since 1 July precipitation 2.60 5.94  
Snow  
Snow 0.00 in - - ()
Month to date snowfall 0.0  
Year to date snowfall 0.0  
Since 1 July snowfall 0.0  
Snow Depth 0.00 in    
Sea Level Pressure  
Sea Level Pressure 30.19 in    
Wind  
Wind Speed 7 mph (NNW)    
Max Wind Speed 16 mph    
Max Gust Speed 20 mph    
Visibility 10 miles    
Events      
T = Trace of Precipitation, MM = Missing Value Source: NWS Daily Summary

Daily Weather History Graph

Daily Weather History Graph

Search for Another Location

Airport:

Trip Planner

Search our weather history database for the weather conditions in past years. The results will help you decide how hot, cold, wet, or windy it might be!

Date:

Astronomy

Feb. 09, 2014 Rise Set
Actual Time 6:37 AM PST 5:29 PM PST
Civil Twilight 6:11 AM PST 5:54 PM PST
Nautical Twilight 5:42 AM PST 6:23 PM PST
Astronomical Twilight 5:13 AM PST 6:52 PM PST
Moon 1:18 PM PST (2/9) 2:40 AM PST (2/9)
Length of Visible Light 11h 42m
Length of Day
10h 51m
Waxing Gibbous, 78% of the Moon is Illuminated
Feb 9
Waxing Gibbous
Feb 14
Full
Feb 22
Last Quarter
Mar 1
New
Mar 8
First Quarter

Hourly Weather History & Observations

Time (PST) Temp. Dew Point Humidity Pressure Visibility Wind Dir Wind Speed Gust Speed Precip Events Conditions
12:51 AM 61.0 °F 53.1 °F 75% 30.24 in 10.0 mi NNW 9.2 mph - N/A   Overcast
1:51 AM 60.1 °F 52.0 °F 75% 30.23 in 10.0 mi North 6.9 mph - N/A   Overcast
2:51 AM 60.1 °F 51.1 °F 72% 30.22 in 10.0 mi North 5.8 mph - N/A   Overcast
3:51 AM 59.0 °F 51.1 °F 75% 30.21 in 10.0 mi NNE 6.9 mph - N/A   Overcast
4:51 AM 59.0 °F 50.0 °F 72% 30.21 in 10.0 mi NE 4.6 mph - N/A   Overcast
5:51 AM 59.0 °F 51.1 °F 75% 30.22 in 10.0 mi North 4.6 mph - N/A   Overcast
6:51 AM 59.0 °F 51.1 °F 75% 30.22 in 10.0 mi NNE 3.5 mph - N/A   Mostly Cloudy
7:01 AM 59.0 °F 51.8 °F 77% 30.22 in 6.0 mi North 5.8 mph - N/A   Haze
7:13 AM 57.2 °F 51.8 °F 82% 30.22 in 7.0 mi Calm Calm - N/A   Mostly Cloudy
7:51 AM 59.0 °F 52.0 °F 78% 30.23 in 10.0 mi ENE 3.5 mph - N/A   Mostly Cloudy
8:51 AM 61.0 °F 51.1 °F 70% 30.23 in 10.0 mi North 3.5 mph - N/A   Mostly Cloudy
9:51 AM 63.0 °F 50.0 °F 63% 30.23 in 10.0 mi NNW 8.1 mph - N/A   Mostly Cloudy
10:51 AM 64.0 °F 50.0 °F 60% 30.22 in 10.0 mi NNW 6.9 mph - N/A   Mostly Cloudy
11:51 AM 64.9 °F 52.0 °F 63% 30.20 in 10.0 mi NW 9.2 mph - N/A   Mostly Cloudy
12:51 PM 66.0 °F 50.0 °F 56% 30.17 in 10.0 mi WNW 11.5 mph - N/A   Mostly Cloudy
1:51 PM 64.9 °F 52.0 °F 63% 30.15 in 10.0 mi WNW 11.5 mph - N/A   Mostly Cloudy
2:28 PM 64.4 °F 50.0 °F 59% 30.14 in 10.0 mi WNW 11.5 mph - N/A   Mostly Cloudy
2:51 PM 64.9 °F 50.0 °F 58% 30.14 in 10.0 mi WNW 13.8 mph - N/A   Mostly Cloudy
3:51 PM 63.0 °F 50.0 °F 63% 30.14 in 10.0 mi WNW 11.5 mph 18.4 mph N/A   Mostly Cloudy
4:51 PM 62.1 °F 51.1 °F 67% 30.14 in 10.0 mi WNW 9.2 mph - N/A   Mostly Cloudy
5:51 PM 61.0 °F 52.0 °F 72% 30.14 in 10.0 mi NW 8.1 mph - N/A   Mostly Cloudy
6:42 PM 60.8 °F 51.8 °F 72% 30.14 in 10.0 mi NW 4.6 mph - N/A   Mostly Cloudy
6:51 PM 61.0 °F 53.1 °F 75% 30.15 in 10.0 mi NNW 6.9 mph - N/A   Mostly Cloudy
7:13 PM 60.8 °F 51.8 °F 72% 30.16 in 10.0 mi NNW 6.9 mph - N/A   Scattered Clouds
7:51 PM 60.1 °F 52.0 °F 75% 30.16 in 10.0 mi North 3.5 mph - N/A   Scattered Clouds
8:51 PM 59.0 °F 52.0 °F 78% 30.16 in 10.0 mi Calm Calm - N/A   Scattered Clouds
9:51 PM 59.0 °F 52.0 °F 78% 30.17 in 10.0 mi Calm Calm - N/A   Scattered Clouds
10:51 PM 57.9 °F 51.1 °F 78% 30.17 in 10.0 mi Calm Calm - N/A   Scattered Clouds
11:51 PM 57.9 °F 51.1 °F 78% 30.17 in 10.0 mi Calm Calm - N/A   Mostly Cloudy